Budapest Ferihegy, Hungary

10:23 AM CET on January 20, 2018 (GMT +0100)
Ferihegy

Weather History for LHBP - October, 2011

Change the Weather History Date:

Wednesday, October 12, 2011

  Actual Average Record
Temperature  
Mean Temperature 56 °F -  
Max Temperature 64 °F 54 °F 77 °F (2000)
Min Temperature 48 °F 37 °F 28 °F (2004)
Degree Days  
Heating Degree Days 9    
Growing Degree Days 6 (Base 50)    
Moisture  
Dew Point 48 °F    
Average Humidity 70    
Maximum Humidity 88    
Minimum Humidity 52    
Precipitation  
Precipitation 0.00 in - - ()
Sea Level Pressure  
Sea Level Pressure 29.98 in    
Wind  
Wind Speed 11 mph ()    
Max Wind Speed 28 mph    
Max Gust Speed 29 mph    
Visibility 6.2 miles    
Events      
Averages and records for this station are not official NWS values.
T = Trace of Precipitation, MM = Missing Value Source: Averaged Metar Reports

Daily Weather History Graph

Daily Weather History Graph

Search for Another Location

Airport or City:

Trip Planner

Search our weather history database for the weather conditions in past years. The results will help you decide how hot, cold, wet, or windy it might be!

Date:

Astronomy

Oct. 12, 2011 Rise Set
Actual Time 6:56 AM CEST 6:01 PM CEST
Civil Twilight 6:25 AM CEST 6:32 PM CEST
Nautical Twilight 5:50 AM CEST 7:08 PM CEST
Astronomical Twilight 5:14 AM CEST 7:43 PM CEST
Moon 5:47 PM CEST (10/12) 7:19 AM CEST (10/12)
Length of Visible Light 12h 06m
Length of Day
11h 05m
Full, 100% of the Moon is Illuminated
Oct 12
Full
Oct 20
Last Quarter
Oct 26
New
Nov 2
First Quarter
Nov 10
Full

Hourly Weather History & Observations

Time (CEST) Temp. Dew Point Humidity Pressure Visibility Wind Dir Wind Speed Gust Speed Precip Events Conditions
12:00 AM 57.2 °F 51.8 °F 82% 29.98 in 6.2 mi WSW 4.6 mph - N/A   Mostly Cloudy
12:30 AM 59.0 °F 53.6 °F 82% 29.98 in - Variable 1.2 mph - N/A   Clear
1:00 AM 57.2 °F 51.8 °F 82% 29.98 in 6.2 mi Variable 3.5 mph - N/A   Mostly Cloudy
1:30 AM 57.2 °F 53.6 °F 88% 29.98 in 6.2 mi Variable 2.3 mph - N/A   Mostly Cloudy
2:00 AM 57.2 °F 53.6 °F 88% 29.98 in 6.2 mi SSW 4.6 mph - N/A   Mostly Cloudy
2:30 AM 59.0 °F 51.8 °F 77% 29.95 in 6.2 mi WSW 8.1 mph - N/A   Mostly Cloudy
3:00 AM 60.8 °F 51.8 °F 72% 29.95 in 6.2 mi WSW 9.2 mph - N/A   Mostly Cloudy
3:30 AM 60.8 °F 51.8 °F 72% 29.95 in 6.2 mi WSW 10.4 mph - N/A   Mostly Cloudy
4:00 AM 60.8 °F 51.8 °F 72% 29.95 in 6.2 mi West 12.7 mph - N/A   Mostly Cloudy
4:30 AM 60.8 °F 51.8 °F 72% 29.95 in 6.2 mi WNW 15.0 mph - N/A   Mostly Cloudy
5:00 AM 60.8 °F 51.8 °F 72% 29.95 in 6.2 mi WNW 17.3 mph - N/A   Mostly Cloudy
5:30 AM 59.0 °F 53.6 °F 82% 29.95 in 6.2 mi WNW 20.7 mph - N/A   Scattered Clouds
6:00 AM 59.0 °F 53.6 °F 82% 29.95 in - WNW 18.4 mph - N/A   Clear
6:30 AM 57.2 °F 53.6 °F 88% 29.95 in - WNW 18.4 mph - N/A   Clear
7:00 AM 57.2 °F 53.6 °F 88% 29.92 in - WNW 17.3 mph - N/A   Clear
7:30 AM 59.0 °F 51.8 °F 77% 29.92 in - NW 17.3 mph 28.8 mph N/A   Clear
8:00 AM 60.8 °F 51.8 °F 72% 29.95 in - NW 17.3 mph - N/A   Clear
8:30 AM 62.6 °F 51.8 °F 68% 29.95 in - NW 17.3 mph - N/A   Clear
9:00 AM 64.4 °F 51.8 °F 64% 29.95 in 6.2 mi WNW 23.0 mph - N/A   Mostly Cloudy
9:30 AM 62.6 °F 51.8 °F 68% 29.95 in - WNW 20.7 mph - N/A   Clear
10:00 AM 64.4 °F 50.0 °F 59% 29.98 in - NW 23.0 mph - N/A   Clear
10:30 AM 64.4 °F 51.8 °F 64% 29.98 in 6.2 mi WNW 25.3 mph - N/A   Mostly Cloudy
11:00 AM 64.4 °F 51.8 °F 64% 29.98 in 6.2 mi WNW 27.6 mph - N/A   Mostly Cloudy
11:30 AM 62.6 °F 50.0 °F 63% 29.98 in 6.2 mi WNW 21.9 mph - N/A   Mostly Cloudy
12:00 PM 64.4 °F 48.2 °F 56% 29.98 in - WNW 18.4 mph - N/A   Clear
12:30 PM 64.4 °F 48.2 °F 56% 29.98 in 6.2 mi NW 18.4 mph - N/A   Mostly Cloudy
1:00 PM 62.6 °F 48.2 °F 59% 29.98 in 6.2 mi West 15.0 mph - N/A   Mostly Cloudy
1:30 PM 60.8 °F 46.4 °F 59% 29.98 in 6.2 mi West 17.3 mph - N/A   Mostly Cloudy
2:00 PM 60.8 °F 44.6 °F 55% 29.98 in 6.2 mi West 19.6 mph - N/A   Mostly Cloudy
2:30 PM 60.8 °F 42.8 °F 52% 29.98 in 6.2 mi WNW 15.0 mph - N/A   Mostly Cloudy
3:00 PM 59.0 °F 42.8 °F 55% 29.98 in 6.2 mi West 15.0 mph - N/A   Mostly Cloudy
3:30 PM 59.0 °F 42.8 °F 55% 29.98 in 6.2 mi West 13.8 mph - N/A   Mostly Cloudy
4:00 PM 59.0 °F 42.8 °F 55% 29.98 in 6.2 mi West 12.7 mph - N/A   Mostly Cloudy
4:30 PM 59.0 °F 42.8 °F 55% 29.98 in 6.2 mi West 15.0 mph - N/A   Mostly Cloudy
5:00 PM 59.0 °F 42.8 °F 55% 30.01 in 6.2 mi West 15.0 mph - N/A   Mostly Cloudy
5:30 PM 57.2 °F 41.0 °F 55% 30.01 in - West 13.8 mph - N/A   Clear
6:00 PM 57.2 °F 42.8 °F 59% 30.01 in - WNW 15.0 mph - N/A   Clear
6:30 PM 55.4 °F 42.8 °F 63% 30.01 in - WNW 13.8 mph - N/A   Clear
7:00 PM 53.6 °F 42.8 °F 67% 30.01 in - WNW 13.8 mph - N/A   Clear
7:30 PM 53.6 °F 42.8 °F 67% 30.04 in - WNW 13.8 mph - N/A   Clear
8:00 PM 51.8 °F 42.8 °F 71% 30.04 in - WNW 12.7 mph - N/A   Clear
8:30 PM 51.8 °F 42.8 °F 71% 30.04 in - WNW 5.8 mph - N/A   Clear
9:00 PM 50.0 °F 42.8 °F 76% 30.04 in - WNW 5.8 mph - N/A   Clear
9:30 PM 50.0 °F 42.8 °F 76% 30.04 in - WSW 6.9 mph - N/A   Clear
10:00 PM 48.2 °F 44.6 °F 87% 30.04 in - West 8.1 mph - N/A   Clear
10:30 PM 50.0 °F 44.6 °F 82% 30.04 in - West 5.8 mph - N/A   Clear
11:00 PM 50.0 °F 44.6 °F 82% 30.06 in - WSW 9.2 mph - N/A   Clear
11:30 PM 50.0 °F 44.6 °F 82% 30.06 in - West 6.9 mph - N/A   Clear